Location: Kuffner-Sternwarte
(48.2130°N, 16.2960°E)
Time: 04:39:56
(UTC+01:00)

Tiangong - Visible Passes

Search period start: 17 January 2026 00:00
Search period end: 27 January 2026 00:00
Orbit: 378 x 394 km, 41.5° (Epoch: 16 January)

Date Brightness Start Highest point End Pass type
(mag) Time Alt. Az. Time Alt. Az. Time Alt. Az.
18 Jan 0.8 06:14:26 10° S 06:15:56 13° SSE 06:17:27 10° SE visible
19 Jan 0.3 06:50:35 10° SW 06:53:04 21° S 06:55:32 10° ESE visible
20 Jan 0.4 05:51:56 11° SSW 05:53:57 17° SSE 05:56:07 10° ESE visible
21 Jan 0.9 04:55:38 12° SE 04:55:38 12° SE 04:56:23 10° SE visible
21 Jan -0.1 06:28:28 10° SW 06:31:05 23° S 06:33:42 10° ESE visible
22 Jan -0.1 05:31:27 20° S 05:31:53 21° S 05:34:22 10° ESE visible
23 Jan -0.3 06:07:10 15° SW 06:09:00 24° S 06:11:39 10° SE visible
24 Jan 0.1 05:10:35 21° SSE 05:10:35 21° SSE 05:12:21 10° ESE visible
24 Jan 0.0 06:43:40 10° WSW 06:46:04 19° SSW 06:48:26 10° SE visible
25 Jan -0.4 05:46:10 21° SSW 05:46:47 22° S 05:49:22 10° SE visible
26 Jan 0.9 04:49:30 14° SE 04:49:30 14° SE 04:50:07 10° SE visible
26 Jan 0.2 06:21:47 10° WSW 06:23:44 15° SSW 06:25:43 10° SSE visible
